| time (UTC) | temp F | wind direction | speed knots | gust knots | rain 1hr in | rain 24hr in | rain mn in | humidity % | barometer mb |
| 20260503054535 | 43 | 309 | 0.0 | 0.0 | 0.00 | 0.14 | 0.00 | 89 | 1015.2 |
| 20260503053026 | 44 | 309 | 0.0 | 0.0 | 0.00 | 0.14 | 0.00 | 89 | 1015.3 |
| 20260503051524 | 44 | 309 | 0.0 | 0.0 | 0.00 | 0.14 | 0.00 | 89 | 1015.2 |
| 20260503050024 | 45 | 309 | 0.0 | 0.0 | 0.00 | 0.14 | 0.14 | 89 | 1015.1 |
| 20260503044602 | 46 | 309 | 0.0 | 0.0 | 0.00 | 0.14 | 0.14 | 89 | 1015.3 |
| 20260503043050 | 46 | 309 | 0.0 | 0.0 | 0.00 | 0.14 | 0.14 | 89 | 1015.3 |
| 20260503041515 | 46 | 309 | 0.0 | 0.0 | 0.00 | 0.14 | 0.14 | 88 | 1015.1 |
| 20260503040023 | 47 | 309 | 0.0 | 0.0 | 0.00 | 0.14 | 0.14 | 88 | 1015.0 |
| 20260503034511 | 47 | 309 | 0.0 | 0.0 | 0.00 | 0.14 | 0.14 | 87 | 1014.9 |
| 20260503033006 | 48 | 309 | 0.0 | 0.0 | 0.00 | 0.14 | 0.14 | 87 | 1014.9 |
| 20260503031504 | 48 | 309 | 0.0 | 0.0 | 0.00 | 0.14 | 0.14 | 87 | 1014.7 |
| 20260503030003 | 48 | 309 | 0.0 | 0.0 | 0.00 | 0.14 | 0.14 | 87 | 1014.6 |
| 20260503024603 | 49 | 309 | 0.0 | 0.0 | 0.00 | 0.14 | 0.14 | 87 | 1014.4 |
| 20260503023058 | 49 | 309 | 0.0 | 0.0 | 0.00 | 0.14 | 0.14 | 87 | 1014.3 |
| 20260503021606 | 49 | 309 | 0.0 | 0.0 | 0.00 | 0.14 | 0.14 | 86 | 1014.1 |
| 20260503020106 | 49 | 309 | 0.0 | 0.0 | 0.00 | 0.14 | 0.14 | 86 | 1014.1 |
| 20260503014529 | 49 | 309 | 0.0 | 0.0 | 0.00 | 0.14 | 0.14 | 86 | 1014.2 |
| 20260503013025 | 49 | 309 | 0.0 | 0.0 | 0.00 | 0.14 | 0.14 | 87 | 1014.1 |
| 20260503011529 | 50 | 309 | 0.0 | 0.0 | 0.00 | 0.14 | 0.14 | 88 | 1013.9 |
| 20260503010019 | 50 | 309 | 0.0 | 0.0 | 0.00 | 0.14 | 0.14 | 90 | 1013.6 |
| 20260503004519 | 51 | 309 | 0.0 | 0.0 | 0.00 | 0.14 | 0.14 | 92 | 1013.4 |
| 20260503003014 | 52 | 309 | 0.0 | 0.0 | 0.00 | 0.14 | 0.14 | 96 | 1013.1 |
| 20260503001511 | 53 | 309 | 0.0 | 0.0 | 0.00 | 0.14 | 0.14 | 98 | 1012.9 |
| 20260503000011 | 54 | 309 | 0.0 | 0.0 | 0.00 | 0.14 | 0.14 | 99 | 1012.7 |
| 20260502234528 | 55 | 310 | 0.0 | 0.0 | 0.00 | 0.14 | 0.14 | 98 | 1012.4 |
| 20260502233010 | 55 | 310 | 0.0 | 0.9 | 0.00 | 0.14 | 0.14 | 98 | 1012.3 |
| 20260502231542 | 55 | 290 | 0.0 | 0.9 | 0.00 | 0.14 | 0.14 | 98 | 1012.4 |
| 20260502230039 | 55 | 207 | 0.0 | 0.9 | 0.00 | 0.14 | 0.14 | 98 | 1012.2 |
| 20260502224536 | 55 | 158 | 0.0 | 0.0 | 0.00 | 0.14 | 0.14 | 98 | 1012.2 |
| 20260502223035 | 55 | 158 | 0.0 | 0.0 | 0.00 | 0.14 | 0.14 | 98 | 1012.2 |
| 20260502221537 | 56 | 244 | 0.0 | 0.9 | 0.00 | 0.14 | 0.14 | 97 | 1012.1 |
| 20260502220045 | 56 | 114 | 0.0 | 0.9 | 0.00 | 0.14 | 0.14 | 98 | 1011.9 |
| 20260502214531 | 56 | 174 | 0.0 | 0.0 | 0.00 | 0.14 | 0.14 | 97 | 1011.9 |
| 20260502213036 | 56 | 74 | 0.0 | 0.9 | 0.00 | 0.14 | 0.14 | 97 | 1011.8 |
| 20260502211530 | 56 | 99 | 0.0 | 0.9 | 0.00 | 0.14 | 0.14 | 95 | 1011.9 |
| 20260502210031 | 56 | 155 | 0.0 | 1.7 | 0.00 | 0.16 | 0.14 | 94 | 1011.8 |
| 20260502204529 | 57 | 72 | 0.0 | 1.7 | 0.00 | 0.16 | 0.14 | 93 | 1011.9 |
| 20260502203026 | 56 | 98 | 0.0 | 0.9 | 0.00 | 0.16 | 0.14 | 95 | 1012.0 |
| 20260502201535 | 57 | 94 | 0.0 | 1.7 | 0.00 | 0.16 | 0.14 | 91 | 1011.9 |
| 20260502200026 | 57 | 73 | 0.0 | 2.6 | 0.00 | 0.16 | 0.14 | 93 | 1011.9 |
| 20260502194535 | 57 | 82 | 0.0 | 1.7 | 0.00 | 0.16 | 0.14 | 94 | 1012.1 |
| 20260502193019 | 57 | 65 | 0.0 | 2.6 | 0.00 | 0.16 | 0.14 | 95 | 1012.3 |
| 20260502191520 | 57 | 68 | 0.0 | 1.7 | 0.00 | 0.16 | 0.14 | 96 | 1012.5 |
| 20260502190020 | 56 | 95 | 0.0 | 2.6 | 0.00 | 0.16 | 0.14 | 96 | 1012.5 |
| 20260502184523 | 57 | 80 | 0.0 | 2.6 | 0.00 | 0.16 | 0.14 | 96 | 1012.6 |
| 20260502183116 | 56 | 72 | 0.0 | 1.7 | 0.00 | 0.16 | 0.14 | 98 | 1012.7 |
| 20260502181511 | 55 | 73 | 0.0 | 2.6 | 0.00 | 0.16 | 0.14 | 99 | 1012.7 |
| 20260502163049 | 54 | 80 | 0.0 | 0.9 | 0.02 | 0.16 | 0.14 | 93 | 1013.8 |
| 20260502161530 | 53 | 48 | 0.0 | 0.9 | 0.01 | 0.15 | 0.13 | 95 | 1014.0 |
| 20260502151601 | 53 | 37 | 0.0 | 0.9 | 0.02 | 0.14 | 0.12 | 95 | 1013.7 |
| 20260502123008 | 52 | 198 | 0.0 | 0.0 | 0.01 | 0.04 | 0.02 | 91 | 1013.1 |
| 20260502121507 | 52 | 198 | 0.0 | 0.0 | 0.01 | 0.04 | 0.02 | 94 | 1012.7 |
| 20260502114503 | 52 | 153 | 0.0 | 0.0 | 0.01 | 0.03 | 0.01 | 93 | 1012.8 |
| 20260502113002 | 52 | 153 | 0.0 | 0.0 | 0.01 | 0.03 | 0.01 | 94 | 1012.9 |
| 20260502111600 | 52 | 153 | 0.0 | 0.0 | 0.01 | 0.03 | 0.01 | 95 | 1012.9 |
| 20260502110029 | 52 | 153 | 0.0 | 0.0 | 0.00 | 0.02 | 0.00 | 96 | 1013.1 |
| 20260502104525 | 53 | 153 | 0.0 | 0.0 | 0.00 | 0.02 | 0.00 | 95 | 1013.1 |
| 20260502103053 | 53 | 153 | 0.0 | 0.0 | 0.00 | 0.02 | 0.00 | 97 | 1013.1 |
| 20260502101552 | 53 | 153 | 0.0 | 0.0 | 0.00 | 0.02 | 0.00 | 95 | 1013.2 |
| 20260502070048 | 52 | 325 | 0.0 | 0.0 | 0.00 | 0.02 | 0.00 | 89 | 1012.1 |
| 20260502064542 | 52 | 325 | 0.0 | 0.0 | 0.00 | 0.02 | 0.00 | 89 | 1012.3 |